Wind_Speed
21 24 28 35 33 34 26 23 14 11 10 13 14 13 10 10 10 7 8 8 7 6 5 4 2 3 6 7 5 5 5 5 3 8 10 6 3 6 3 3 7 11 8
24 27 31 36 35 27 25 18 17 20 13 14 14 12 10 9 10 12 11 9 10 6 5 5 3 2 1 4 5 4 4 1 3 3 10 10 8 5 3 5 6 6 9
32 31 28 27 32 16 16 20 17 16 15 13 13 14 13 13 13 13 11 8 7 8 8 7 5 4 4 1 3 3 5 2 3 2 1 9 12 10 11 11 11 9 10
24 29 30 32 25 14 13 15 18 14 17 16 15 13 13 14 13 13 11 10 10 9 7 6 6 5 4 2 2 2 3 3 2 7 9 14 18 16 15 10 10 17 14
14 25 25 24 20 17 20 23 24 25 23 18 15 15 14 15 13 13 11 11 11 9 9 8 8 8 9 9 5 6 2 4 7 8 14 13 5 14 10 3 4 10 8
7 15 17 22 21 22 22 22 21 18 16 16 18 17 14 12 13 12 12 12 11 10 11 10 8 15 12 13 12 11 8 5 6 9 12 9 10 9 8 7 6 8 7
9 16 13 12 15 15 14 14 14 16 17 18 16 15 14 13 15 19 16 13 14 13 14 14 13 16 20 14 12 10 10 13 15 14 14 15 11 6 8 7 6 8 10
8 8 11 13 13 15 15 15 16 17 18 17 14 13 12 14 17 15 19 12 10 13 14 15 13 9 11 14 13 13 14 12 13 15 17 16 16 13 12 12 13 15 16
11 12 16 17 17 17 15 16 15 16 15 13 12 12 13 12 12 13 19 17 11 11 13 13 14 16 15 15 14 14 13 13 12 19 17 17 14 15 16 17 19 15 16
14 12 16 18 18 19 17 17 15 16 15 14 14 15 15 15 16 13 16 14 14 17 19 21 21 20 18 14 15 13 13 14 13 14 16 23 23 24 24 24 25 19 18
11 14 15 16 17 18 15 17 14 15 13 13 16 18 18 16 16 17 17 18 17 17 21 22 26 23 20 21 19 17 18 15 15 14 16 16 18 23 26 26 26 28 23
14 14 14 15 14 14 15 15 13 13 11 15 12 13 16 16 20 21 21 22 20 22 18 15 8 5 24 22 21 22 19 19 21 21 18 19 20 22 27 30 29 30 24
16 15 15 14 11 17 13 13 14 14 13 15 16 17 20 23 25 26 25 26 24 24 25 19 13 13 10 19 19 21 19 19 20 19 19 22 23 25 23 16 15 15 19
13 13 14 15 15 18 19 18 17 18 18 18 18 18 21 22 30 29 31 30 29 26 25 25 24 21 17 15 18 21 24 28 26 23 23 24 22 21 15 9 9 11 12
16 15 15 16 18 16 17 18 21 21 19 19 21 18 14 10 5 13 30 29 30 28 26 21 19 18 19 21 24 28 28 29 27 28 27 26 21 17 14 18 19 15 14
17 17 18 19 23 21 21 20 22 21 15 15 17 13 15 8 6 4 4 19 19 21 18 20 19 21 22 23 26 27 32 28 29 32 28 26 20 18 18 19 18 17 15
20 20 20 23 18 24 22 23 18 22 21 26 24 25 27 27 21 16 11 10 11 13 13 15 17 19 19 19 21 24 24 20 27 30 25 21 21 17 13 12 13 13 16
23 22 18 15 19 15 17 19 17 16 15 22 28 31 31 31 30 30 26 22 17 17 20 18 18 21 24 26 30 31 27 24 25 18 20 20 18 17 17 16 14 13 17
22 21 19 20 19 14 15 14 20 19 18 12 15 25 35 37 34 32 29 25 20 21 22 23 27 29 30 30 33 31 14 22 30 25 20 17 19 21 21 19 17 18 19
25 26 24 21 21 22 18 18 16 21 19 21 20 23 12 21 29 31 33 34 30 29 29 29 29 28 29 33 37 35 26 30 33 26 22 19 17 19 21 20 20 21 20
24 23 26 26 26 25 23 22 21 18 21 15 19 19 26 16 22 23 27 32 34 36 31 31 31 30 31 31 33 40 35 29 34 27 24 24 25 25 26 26 24 22 18
27 28 29 30 30 28 25 23 17 20 18 13 17 23 25 31 23 22 25 34 39 34 36 34 33 32 32 28 29 32 31 30 29 27 27 28 29 29 29 27 23 21 21
21 25 28 27 34 35 27 24 24 22 24 24 24 33 29 27 28 29 30 32 42 41 34 34 32 25 21 22 32 35 33 40 35 36 34 32 30 29 28 26 24 23 22
21 19 20 19 15 21 27 28 30 28 27 24 28 27 29 29 29 33 33 33 39 32 36 34 30 33 40 40 36 40 37 48 46 40 38 33 30 30 29 27 25 19 17
20 21 22 18 16 16 26 28 26 25 33 31 29 31 32 31 33 39 39 26 13 27 32 33 28 27 28 31 45 31 45 44 48 39 37 36 33 34 31 30 27 21 19
28 25 21 22 18 10 32 33 19 21 23 29 33 36 33 34 33 25 21 21 27 38 28 29 30 17 13 21 30 42 23 28 30 32 39 28 27 22 22 22 19 12 6
Wind_Direction
187 182 177 183 183 194 207 215 208 213 222 226 220 211 220 212 209 198 187 189 165 168 116 186 98 54 66 88 77 79 73 64 72 113 131 144 110 133 189 270 258 260 248
185 179 177 184 188 198 204 208 210 215 229 224 213 200 205 194 201 186 184 185 172 165 169 174 162 143 132 103 110 140 102 91 72 164 171 177 176 194 214 241 226 265 208
180 183 180 184 195 198 195 205 209 222 227 204 206 204 189 192 190 197 189 194 184 195 194 191 172 172 156 227 207 200 175 238 178 330 254 198 189 197 228 245 245 257 254
184 180 184 192 198 193 201 216 223 210 187 190 196 202 191 186 194 200 193 192 193 186 182 190 187 189 208 217 235 267 248 239 239 251 253 260 214 208 215 242 258 258 258
192 185 186 184 189 190 186 190 194 184 183 193 205 195 189 198 201 200 193 193 190 185 187 197 200 203 215 219 218 243 278 232 271 279 263 248 232 166 205 276 2 10 360
158 159 168 186 197 195 196 188 184 189 196 196 187 190 183 190 198 194 196 196 191 194 200 208 235 215 210 220 228 253 258 270 280 313 318 357 26 2 42 23 1 6 338
140 164 159 176 180 190 185 188 188 191 182 187 180 193 195 203 222 200 195 195 195 204 206 211 218 227 228 222 224 236 248 250 250 258 273 283 294 294 314 327 308 303 290
175 149 160 184 181 183 174 180 175 178 178 189 184 193 198 189 180 195 195 200 203 212 216 217 225 252 193 209 221 229 238 242 232 233 242 260 266 275 264 270 277 278 281
154 162 172 174 170 177 178 179 180 179 181 184 181 186 198 191 196 199 198 214 222 224 235 234 232 229 234 238 235 242 254 264 269 251 252 262 262 253 255 260 260 269 278
176 178 180 177 173 180 184 188 184 181 183 182 179 193 205 212 207 204 203 201 226 233 234 231 227 229 232 223 228 227 241 250 256 271 258 253 255 257 258 258 264 253 255
167 172 174 180 185 186 188 185 185 187 185 197 193 200 207 213 214 210 213 215 232 249 244 231 224 227 228 225 233 231 235 246 256 268 273 267 263 266 268 260 257 254 245
175 177 178 187 186 187 177 176 186 196 210 198 204 213 215 220 220 217 220 222 229 246 268 283 290 234 243 221 226 237 243 244 251 262 272 275 273 270 265 262 257 254 262
174 179 180 174 190 170 175 185 198 206 213 201 207 216 227 226 218 224 226 227 231 236 245 253 251 296 306 222 235 243 248 251 252 249 249 255 261 268 278 278 261 273 270
178 178 177 181 201 180 188 200 209 203 208 229 224 223 229 230 206 214 222 227 230 231 235 242 248 258 260 251 249 254 253 253 245 238 243 248 254 268 279 271 274 268 270
187 188 190 196 195 202 212 209 209 224 225 222 221 225 248 250 161 214 216 213 221 227 231 239 249 258 259 253 250 250 249 253 241 241 241 247 248 251 258 271 274 267 258
192 197 201 205 194 208 204 219 227 235 248 259 252 248 258 261 291 303 129 197 204 208 213 220 233 243 244 253 259 250 247 240 235 245 240 238 241 246 251 260 263 253 255
207 205 212 220 218 200 212 203 215 222 232 238 247 250 249 255 249 243 248 236 230 227 228 225 233 248 261 263 259 258 248 237 232 221 218 233 240 242 246 255 257 262 269
215 228 234 235 225 250 224 208 214 223 223 235 241 245 247 250 251 251 242 240 243 255 254 244 243 246 250 253 261 263 261 267 237 224 223 226 237 251 252 249 250 256 260
212 228 239 250 265 247 248 246 219 222 226 252 242 251 250 244 250 256 258 250 239 239 242 244 248 247 247 249 252 260 278 268 242 239 234 232 234 236 239 240 247 253 261
216 221 232 245 239 249 257 261 237 221 217 237 253 256 257 237 236 245 252 247 240 238 239 244 246 249 245 239 246 250 249 251 227 220 227 226 233 237 238 237 235 242 241
207 226 239 246 246 245 234 229 234 239 251 240 246 268 248 244 235 228 231 238 233 236 245 250 247 246 248 247 248 246 246 233 251 228 219 224 225 231 239 237 237 236 242
203 217 219 223 231 237 238 239 241 229 235 235 248 250 258 262 262 240 237 232 230 237 243 245 248 242 241 243 243 243 236 237 235 230 224 221 222 224 226 228 230 234 233
236 224 230 231 218 225 232 230 234 240 243 248 247 255 264 256 255 248 245 244 233 245 245 239 242 246 244 256 282 286 269 258 241 235 230 225 222 225 228 228 229 232 230
257 269 271 262 254 229 228 232 231 230 231 235 231 238 253 251 249 252 249 256 250 244 245 242 252 276 256 262 249 252 256 250 239 234 230 228 227 226 225 224 225 213 180
246 246 254 266 279 323 322 271 247 225 214 218 226 239 244 245 254 255 242 232 279 256 256 246 249 255 261 278 267 288 265 263 234 229 229 233 232 229 219 211 201 183 171
257 241 241 247 244 237 247 269 274 281 214 218 224 233 239 243 246 250 221 230 239 262 271 284 284 291 266 264 268 242 284 295 241 246 231 240 241 227 201 173 157 155 153
Height
763 768 774 776 778 781 787 793 797 801 800 806 807 807 809 810 814 817 819 821 822 824 825 827 828 828 830 832 832 834 835 836 837 840 842 844 845 846 847 848 847 848 847
759 763 770 776 778 783 789 789 795 798 804 809 811 807 809 812 816 815 819 819 820 821 825 828 827 828 830 832 834 836 837 836 839 839 840 843 844 844 846 846 844 845 844
751 760 768 776 779 780 784 786 790 794 799 805 810 808 807 811 812 817 819 819 820 821 825 826 827 827 829 831 835 836 836 836 838 839 840 840 841 841 843 843 841 841 841
756 759 760 768 773 777 781 784 789 791 797 801 805 807 809 811 812 816 817 818 820 821 822 825 826 827 829 832 834 836 836 836 837 837 838 837 837 838 840 839 840 838 838
750 728 758 766 768 773 778 781 784 787 791 795 801 804 806 808 812 813 816 816 818 819 821 824 826 828 829 831 832 834 835 836 836 837 836 834 834 837 837 838 836 835 835
755 753 757 765 768 774 776 779 783 786 791 795 797 802 802 806 808 811 814 815 817 817 820 823 825 827 828 830 830 833 834 834 835 835 835 835 836 835 835 835 834 836 837
758 760 754 767 772 775 778 780 781 786 789 794 795 798 799 802 805 808 811 813 816 818 820 822 824 825 824 826 828 830 830 832 833 834 834 833 834 834 835 833 835 836 836
761 759 760 767 772 778 778 782 782 786 787 791 792 796 797 801 803 807 809 812 814 816 819 820 821 821 822 824 824 826 828 828 828 828 829 830 830 830 831 832 833 833 832
762 763 766 769 770 775 777 780 783 784 787 790 791 794 798 801 803 806 807 811 812 813 815 817 817 818 820 821 822 823 824 824 823 823 823 824 826 827 828 830 828 829 827
762 765 767 769 769 774 777 779 782 784 786 789 789 794 798 800 802 803 805 808 810 811 812 813 812 813 814 815 817 818 819 819 820 820 820 821 821 822 823 823 822 822 823
761 763 766 768 771 772 775 778 781 783 785 786 789 792 795 797 798 800 802 804 806 807 807 805 806 806 807 808 810 812 813 815 816 817 816 816 816 816 815 815 814 816 817
759 761 764 766 770 772 774 777 780 781 783 785 788 791 792 793 794 795 797 799 801 801 801 801 801 800 800 802 805 807 808 811 812 812 812 811 812 811 808 807 807 808 809
756 758 761 764 768 770 774 776 778 780 782 784 785 786 786 786 788 788 790 791 794 796 796 796 797 797 798 800 802 802 804 804 805 806 806 806 806 805 803 802 802 802 803
755 758 760 763 766 768 771 774 775 776 778 779 778 778 778 777 777 778 781 783 786 789 790 791 792 793 795 795 796 795 795 796 797 798 799 798 797 797 797 797 798 798 798
753 756 758 761 763 765 767 768 769 769 770 770 770 771 771 771 772 772 773 775 779 781 784 786 786 786 786 787 788 788 789 788 790 791 791 791 790 790 790 791 791 792 792
750 752 754 754 755 758 760 761 762 764 765 765 766 767 768 771 771 772 772 774 775 776 776 778 779 780 781 782 782 780 779 779 781 780 783 784 784 784 784 784 785 785 786
745 746 747 748 746 749 751 753 755 756 757 760 760 761 762 764 766 768 769 770 771 772 772 772 773 774 775 775 773 771 769 769 768 770 770 773 776 777 777 777 778 779 780
739 741 741 741 742 742 744 745 748 750 752 753 754 756 756 757 758 759 761 763 764 764 764 765 766 767 767 767 765 763 761 759 760 765 766 764 766 768 770 770 771 772 774
735 737 737 738 738 738 739 740 741 743 745 747 747 748 748 750 751 753 755 755 754 754 755 755 755 756 757 757 755 752 756 755 753 756 758 755 759 762 763 763 764 765 767
727 730 733 733 733 733 734 735 735 736 738 739 738 738 740 741 743 745 745 745 745 744 745 747 747 747 746 745 744 743 741 749 749 745 743 743 750 754 756 756 755 756 757
718 723 725 726 725 724 724 725 726 728 728 730 729 731 731 733 734 733 736 735 733 734 735 739 737 736 737 738 737 735 732 738 741 734 731 735 737 742 745 746 746 746 748
707 708 710 712 714 716 716 717 717 718 724 720 720 720 723 721 726 724 726 726 723 721 722 725 727 725 725 725 722 720 722 723 724 725 726 727 729 731 734 736 736 737 739
699 699 700 700 701 704 706 707 707 709 710 711 712 712 709 709 714 713 713 715 714 714 714 715 717 715 715 717 720 718 717 720 717 718 718 717 717 719 722 724 727 729 730
693 691 690 690 692 695 698 698 697 698 699 701 703 702 702 704 702 704 706 706 705 703 703 703 703 705 705 701 703 700 700 704 703 704 706 708 707 706 709 713 716 718 721
689 688 686 687 689 690 692 688 686 685 687 689 690 690 689 693 693 693 692 693 693 692 698 695 693 688 695 695 703 697 688 690 683 688 694 695 695 693 691 695 702 708 713
683 680 680 682 683 683 687 683 678 677 676 678 678 679 677 682 681 681 680 683 684 688 689 688 686 685 688 686 683 669 686 669 661 676 681 686 687 687 689 693 696 701 707